Overview Statistics Trail Chart Weather Telemetry Raw packets
 

This is the latest recevied weather packets stored in our database for station/object K7SKM. If no packets are shown the sender has not sent any weather packets the latest 10 day(s).

<< 106 107 108 109 110 111 112 >>
Time Temp. Humidity Pressure Rain* Wind** Luminosity Snow
1787874026 23.89° C 52% 1021.9 hPa 0 mm - 176 W/m² -
1787873725 22.78° C 53% 1021.9 hPa 0 mm - 150 W/m² -
1787873421 23.33° C 52% 1022.1 hPa 0 mm - 80 W/m² -
1787873115 23.33° C 52% 1022 hPa 0 mm - 93 W/m² -
1787872809 23.89° C 49% 1022 hPa 0 mm - 87 W/m² -
1787872505 23.89° C 49% 1022 hPa 0 mm - 168 W/m² -
1787872200 23.89° C 49% 1022.1 hPa 0 mm - 125 W/m² -
1787871899 23.89° C 48% 1022.2 hPa 0 mm - 46 W/m² -
1787871594 23.89° C 49% 1022.2 hPa 0 mm - 54 W/m² -
1787871290 23.33° C 52% 1022.2 hPa 0 mm - 63 W/m² -
1787870984 23.33° C 52% 1022.4 hPa 0 mm - 41 W/m² -
1787870683 23.33° C 54% 1022.3 hPa 0 mm - 42 W/m² -
1787870378 22.78° C 56% 1022.4 hPa 0 mm - 66 W/m² -
1787870074 22.78° C 55% 1022.6 hPa 0 mm - 203 W/m² -
1787869772 23.33° C 55% 1022.6 hPa 0 mm - 127 W/m² -
1787869468 22.78° C 55% 1022.5 hPa 0 mm - 151 W/m² -
1787869162 22.22° C 55% 1022.4 hPa 0 mm - 117 W/m² -
1787868862 22.22° C 55% 1022.6 hPa 0 mm - 89 W/m² -
1787868560 22.78° C 54% 1022.6 hPa 0 mm - 45 W/m² -
1787868259 22.78° C 53% 1022.7 hPa 0 mm - 39 W/m² -
1787867954 22.78° C 52% 1022.4 hPa 0 mm - 35 W/m² -
1787867650 23.89° C 51% 1022.7 hPa 0 mm - 60 W/m² -
1787867344 23.89° C 50% 1022.5 hPa 0 mm - 106 W/m² -
1787867041 23.89° C 51% 1022.7 hPa 0 mm - 123 W/m² -
1787866735 23.89° C 50% 1022.4 hPa 0 mm - 307 W/m² -

* Rain latest hour (hover to see other rain measurements)
** Current wind speed in m/s (hover to see current wind gust speed)